Flag for Saudi Arabia Weather past 2 weeks in Riyadh, Saudi Arabia

Now
81 °F

Sunny.


Feels Like: 80 °F
Forecast: 76 / 99 °F
Wind: 9 mph from Southeast

Location: Riyadh Airport

Current Time: Mar 29, 2015 at 10:31:32 AM

Latest Report: Mar 29, 2015 at 10:00 AM


Visibility: 10 mi

Pressure: 30.04 "Hg

Humidity: 37%

Dew point: 52 °F

Location of RiyadhLocation

Historic Weather in Riyadh — Graph

°F

Riyadh temperature yesterday

Maximum temperature yesterday: 86 °F (at 1:00 PM)
Minimum temperature yesterday: 66 °F (at 12:00 AM)
Average temperature yesterday: 78 °F

Past Weeks' High & Low Weather Summary

 TemperatureHumidityPressure
High90 °F (Mar 14, 4:00 PM)94% (Mar 26, 9:00 PM)30.24 "Hg (Mar 26, 9:00 PM)
Low57 °F (Mar 23, 7:30 AM)14% (Mar 14, 4:00 PM)29.89 "Hg (Mar 17, 2:00 PM)
Average75 °F42%30.04 "Hg
* Reported Mar 14 4:00 PM — Mar 29 9:00 AM, Riyadh, Weather by CustomWeather, © 2015

Note: Actual official high and low records may vary slightly from our data, if they occured in-between our weather recording intervals... More about our weather records

Advertising

Riyadh weather history for previous 24 hours

 ConditionsComfort  
Time TempWeatherWind HumidityBarometerVisibility
9:00 AM
Sun, Mar 29
75 °FSunny.12 mph39%30.04 "Hg10 mi
8:00 AM73 °FSunny.8 mph38%30.04 "Hg10 mi
7:00 AM70 °FSunny.8 mph40%30.04 "Hg10 mi
6:00 AM68 °FSunny.8 mph46%30.01 "Hg10 mi
12:00 AM73 °FClear.8 mph41%30.04 "Hg10 mi
11:00 PM
Sat, Mar 28
73 °FClear.7 mph44%30.07 "Hg10 mi
10:00 PM75 °FClear.10 mph41%30.07 "Hg10 mi
9:00 PM77 °FClear.12 mph42%30.07 "Hg10 mi
8:00 PM79 °FClear.13 mph39%30.04 "Hg10 mi
6:00 PM82 °FSunny.12 mph51%30.01 "Hg6 mi
5:00 PM84 °FSunny.8 mph48%30.01 "Hg10 mi
3:00 PM84 °FSunny.9 mph51%30.01 "Hg6 mi
2:00 PM84 °FSunny.8 mph48%30.04 "Hg6 mi
1:00 PM86 °FSunny.9 mph49%30.07 "Hg6 mi
11:00 AM77 °FSunny.7 mph65%30.09 "Hg6 mi
10:00 AM77 °FSunny.8 mph69%30.12 "Hg6 mi
Weather by CustomWeather, © 2015

See weather overviewHow to use our weather pages